Guest User

Dirty Roads

a guest
Feb 3rd, 2017
142
Never
Not a member of Pastebin yet? Sign Up, it unlocks many cool features!
  1. ************ : log created on : Friday February 03 2017 @ 16:44:07
  2. 00:00:00.000 : [sys] running on x86 / Windows 10 x64 (version 10.0)
  3. 00:00:00.000 : [sys] DirectX version : 4.09.00.0904
  4. 00:00:00.000 : [sys] Command line: C:\Program Files (x86)\Steam\steamapps\common\Euro Truck Simulator 2\bin\win_x86\eurotrucks2.exe
  5. 00:00:00.000 : [cpu] CPU0: AuthenticAMD [AMD A6-5350M APU with Radeon(tm) HD Graphics ] with 2 cores (2 threads) at ~2895MHz.
  6. 00:00:00.000 : [sys] using 1 worker thread(s)
  7. 00:00:00.000 : [sys] and 3 worker threads for IO.
  8. 00:00:00.000 : [sys] plus 1 real-time worker threads.
  9. 00:00:00.000 : [sys] using QPC / TSC invariant timer, frequency 2826747Hz
  10. 00:00:00.000 : [mem] physical total: 3270M
  11. 00:00:00.000 : [mem] physical avail: 1622M
  12. 00:00:00.000 : [mem] virtual total: 4095M
  13. 00:00:00.000 : [mem] virtual avail: 3534M
  14. 00:00:00.000 : [mem] Trying to allocate memory pool (409600K)
  15. 00:00:00.001 : [mem] Allocated 5 temporary loading buffer(s)
  16. 00:00:00.014 : [xinput] Using XInput version 1.4.0
  17. 00:00:00.036 : [hashfs] effect.scs: Mounted, 8361 entries
  18. 00:00:00.135 : [hashfs] base.scs: Mounted and validated, 48827 entries (050085C8D469F49D5E746E74F04378E4940C786B1DEC21180EFDC76B0EA9064)
  19. 00:00:00.137 : [hashfs] core.scs: Mounted and validated, 8 entries (432CF0BC2786A25AEE870731CC8B46E44D63B3FE75EE7B326E25225ED0140D6)
  20. 00:00:00.393 : [hashfs] def.scs: Mounted and validated, 7509 entries (226AF61B0B89C2A2C79F6185DBC08B8C84123892662E367D402C8A43B641C9B)
  21. 00:00:00.710 : [hashfs] locale.scs: Mounted and validated, 176 entries (844A2A1F3FDFDDEEA694CB6C9EC2DBF268F147CCDA7AC39AFF0099993876E3E)
  22. 00:00:00.712 : [hashfs] base_cfg.scs: Mounted and validated, 1 entries (DBA41189A36BF04A1A95B9DFC65B6D0A3087FED21D0C3C77101F77F34A7400C)
  23. 00:00:00.712 : [ufs] Home directory: 'C:/Users/srpsk/Documents/Euro Truck Simulator 2'.
  24. 00:00:00.728 : [hashfs] dlc_christmas.scs: Mounted and validated, 657 entries (D1FFD60D896731131AC451F8606E3DCFBE843F5C3E7D70838B3B7DF912CAF09)
  25. 00:00:01.419 : [hashfs] dlc_east.scs: Mounted and validated, 856 entries (234EB436311FE5FDDDD5024291FFB914B1585835DF6DAA5E91647AEF5D9AD39)
  26. 00:00:01.426 : [hashfs] dlc_flags_uk.scs: Mounted and validated, 210 entries (A19E7DB668BD95F28E5130C5604AC7B688805D63304C123F11F5B10919727BA)
  27. 00:00:03.588 : [hashfs] dlc_fr.scs: Mounted and validated, 4330 entries (C95A7F1F58ED97BD623AC4B380A678E76CE38F1480288F741B3068B9D865323)
  28. 00:00:03.664 : [hashfs] dlc_halloween.scs: Mounted and validated, 529 entries (D8A22E2E3511DFFE0B30EC23A9745B4D0DABDAC990482FAA7A77C1B4B56F133)
  29. 00:00:03.671 : [hashfs] dlc_metallics.scs: Mounted and validated, 218 entries (2DAD1C95AEDACCA2DB12374F854C8529830D87C85E10F2094742D68617ED21C)
  30. 00:00:03.677 : [hashfs] dlc_metallics2.scs: Mounted and validated, 252 entries (470808A47C42B186AE408BD3A939DBCB6A60F3DCE6DE37EDE1C15B8671120B4)
  31. 00:00:03.686 : [hashfs] dlc_nature.scs: Mounted and validated, 467 entries (4BDE3748CFDACF95DCC246DB6A0FD65ECFB998226B53E578A4D3C1D9F8B393A)
  32. 00:00:05.869 : [hashfs] dlc_north.scs: Mounted and validated, 6341 entries (B0593E23668F8A581CCEBC22E9F980D3A7BBB4CF42987478F97DDF4488667AE)
  33. 00:00:06.135 : [hashfs] dlc_phys_flags.scs: Mounted and validated, 8102 entries (127A6ADCF67E0E036ECCFC07E4A7CF973454942F9D8BD7C92C1AD83B5545051)
  34. 00:00:06.140 : [hashfs] dlc_rocket_league.scs: Mounted and validated, 125 entries (CF36114DA86BF2371DA5D5CB9C0D067DEC6EB37A70B979CAF20AB0073EF7DDA)
  35. 00:00:06.218 : [hashfs] dlc_toys.scs: Mounted and validated, 1257 entries (174A04D83DDB6263381053D33CF8BF6018C293C11565AFEA3E574D1B2297D5F)
  36. 00:00:06.475 : [hashfs] dlc_trailers.scs: Mounted and validated, 747 entries (D24A56DF40D1D979FC8319F05A1F659CEB9A36861EF3604BA2993AC59468B37)
  37. 00:00:06.482 : [hashfs] dlc_vikings.scs: Mounted and validated, 300 entries (06C3147E18701B1427D2DDE85FADD7D3BEB512D3BEA53C538E55DA521CB352F)
  38. 00:00:06.496 : [hashfs] dlc_winter.scs: Mounted and validated, 668 entries (8F7C4E143D88660CAF5497902C6AC93E4BB2EBF5533D79D115865B4E4E929E6)
  39. 00:00:06.635 : [zipfs] 1_MHAPro_1_26_5_map_MOD_for_ETS2_v1_26_x.scs: read ok, 33029 entries [0xf4ededed]
  40. 00:00:06.723 : [zipfs] 2_MHAPro_1_26_5_map_MOD_for_ETS2_v1_26_x.scs: read ok, 9124 entries [0x272f2f27]
  41. 00:00:06.777 : [zipfs] 3_MHAPro_1_26_5_map_MOD_for_ETS2_v1_26_x.scs: read ok, 5093 entries [0x5fa7a7bf]
  42. 00:00:06.778 : [zipfs] 4 - Truck Steering fix up to 70ton.scs: read ok, 116 entries [0x6e3d3962]
  43. 00:00:06.832 : [zipfs] 4_MHAPro_1_26_5_map_MOD_for_ETS2_v1_26_x.scs: read ok, 4595 entries [0x8c967128]
  44. 00:00:06.854 : [zipfs] 5_MHAPro_1_26_5_map_MOD_for_ETS2_v1_26_x.scs: read ok, 501 entries [0xadb76831]
  45. 00:00:06.989 : [zipfs] Chris45 Trailers V9.01.scs: read ok, 18466 entries [0x6b078d2c]
  46. 00:00:07.288 : [zipfs] ETS_2_Base_def&mat.scs: read ok, 55288 entries [0xaec09727]
  47. 00:00:07.289 : <WARNING> [mods] Unknown category 'base' defined for ETS_2_Base_def&mat. Ignoring.
  48. 00:00:07.289 : <WARNING> [mods] No valid categories defined for ETS_2_Base_def&mat. Setting defaults.
  49. 00:00:07.421 : [zipfs] ETS_2_Base_model_part1.scs: read ok, 20608 entries [0x572de911]
  50. 00:00:07.421 : <WARNING> [mods] Unknown category 'base' defined for ETS_2_Base_model_part1. Ignoring.
  51. 00:00:07.421 : <WARNING> [mods] No valid categories defined for ETS_2_Base_model_part1. Setting defaults.
  52. 00:00:07.497 : [zipfs] ETS_2_Base_model_part2.scs: read ok, 12065 entries [0xb4868aaf]
  53. 00:00:07.497 : <WARNING> [mods] Unknown category 'base' defined for ETS_2_Base_model_part2. Ignoring.
  54. 00:00:07.497 : <WARNING> [mods] No valid categories defined for ETS_2_Base_model_part2. Setting defaults.
  55. 00:00:07.636 : [zipfs] ETS_2_Base_model_part3.scs: read ok, 27489 entries [0x1653f835]
  56. 00:00:07.637 : <WARNING> [mods] Unknown category 'base' defined for ETS_2_Base_model_part3. Ignoring.
  57. 00:00:07.637 : <WARNING> [mods] No valid categories defined for ETS_2_Base_model_part3. Setting defaults.
  58. 00:00:07.829 : [zipfs] ETS_2_Base_prefab&more_part1.scs: read ok, 13596 entries [0xb396c4e7]
  59. 00:00:07.829 : <WARNING> [mods] Unknown category 'base' defined for ETS_2_Base_prefab&more_part1. Ignoring.
  60. 00:00:07.829 : <WARNING> [mods] No valid categories defined for ETS_2_Base_prefab&more_part1. Setting defaults.
  61. 00:00:07.980 : [zipfs] ETS_2_Base_prefab&more_part2.scs: read ok, 18280 entries [0x6a486741]
  62. 00:00:07.980 : <WARNING> [mods] Unknown category 'base' defined for ETS_2_Base_prefab&more_part2. Ignoring.
  63. 00:00:07.980 : <WARNING> [mods] No valid categories defined for ETS_2_Base_prefab&more_part2. Setting defaults.
  64. 00:00:08.044 : [zipfs] ETS_2_Map_Basic_v12.2.scs: read ok, 2580 entries [0xefcfa60c]
  65. 00:00:08.116 : [zipfs] ETS_2_Map_Morozov_Express_v6.3.scs: read ok, 2864 entries [0x3d8d5342]
  66. 00:00:08.163 : [zipfs] ETS_2_Map_North_America.scs: read ok, 517 entries [0x67ea1cda]
  67. 00:00:08.230 : [zipfs] ETS_2_Map_South_America.scs: read ok, 2903 entries [0xc19fbb55]
  68. 00:00:08.290 : [zipfs] ETS_2_Map_Supplementary_maps.scs: read ok, 353 entries [0xc7b3e539]
  69. 00:00:08.435 : [zipfs] ETS_2_Mod__USA_Trucks_by_Term99_v2.1.0.scs: read ok, 11629 entries [0x24bb84c2]
  70. 00:00:08.435 : <WARNING> [mods] Unknown category 'mod' defined for ETS_2_Mod__USA_Trucks_by_Term99_v2.1.0. Ignoring.
  71. 00:00:08.435 : <WARNING> [mods] No valid categories defined for ETS_2_Mod__USA_Trucks_by_Term99_v2.1.0. Setting defaults.
  72. 00:00:08.504 : [zipfs] ETS_2_Mod__Weather_by_Term99_v1.1.scs: read ok, 207 entries [0xfe7df125]
  73. 00:00:08.505 : <WARNING> [mods] Unknown category 'mod' defined for ETS_2_Mod__Weather_by_Term99_v1.1. Ignoring.
  74. 00:00:08.505 : <WARNING> [mods] No valid categories defined for ETS_2_Mod__Weather_by_Term99_v1.1. Setting defaults.
  75. 00:00:08.534 : [zipfs] EU_Map_Baltic_Countrys.scs: read ok, 636 entries [0]
  76. 00:00:08.534 : <WARNING> [mod] Mod package 'EU_Map_Baltic_Countrys' does not contain a manifest file 'manifest.sii', creating default information set.
  77. 00:00:08.535 : [zipfs] Fast Level & More XP V1.26.scs: read ok, 8 entries [0xa5eb1445]
  78. 00:00:08.535 : [zipfs] IWR6_sup01.scs: read ok, 210 entries [0xf7bfd361]
  79. 00:00:08.558 : [zipfs] IWR6_sup01_ProMods_Patch.scs: read ok, 30 entries [0xb3f2f169]
  80. 00:00:08.558 : [zipfs] Map zoom - With ProMods.scs: read ok, 5 entries [0xc4fded20]
  81. 00:00:08.558 : <WARNING> [mods] No display_name defined in Map zoom - With ProMods. Using package name instead.
  82. 00:00:08.559 : [zipfs] Map zoom - Without ProMods.scs: read ok, 5 entries [0xafaec89a]
  83. 00:00:08.559 : <WARNING> [mods] No display_name defined in Map zoom - Without ProMods. Using package name instead.
  84. 00:00:08.584 : <ERROR> [zipfs] Unsupported compression method used: 99 for record #2 - automag/za/377bf604bd28c9f3e638cf09fdf8807d0b1762.mat from 'C:/Users/srpsk/Documents/Euro Truck Simulator 2/mod/MAPA_EAABUS_V4-1-2.scs'.
  85. 00:00:08.584 : <ERROR> [zipfs] Unsupported compression method used: 99 for record #3 - automag/za/77e2a90b33dc582dabbb43fc72b30fe6ee7d03.mat from 'C:/Users/srpsk/Documents/Euro Truck Simulator 2/mod/MAPA_EAABUS_V4-1-2.scs'.
  86. 00:00:08.584 : <ERROR> [zipfs] Unsupported compression method used: 99 for record #4 - automag/za/baa67921e6bc592fb7ca0beb65d186fe36d7e2.mat from 'C:/Users/srpsk/Documents/Euro Truck Simulator 2/mod/MAPA_EAABUS_V4-1-2.scs'.
  87. 00:00:08.584 : <ERROR> [zipfs] Unsupported compression method used: 99 for record #5 - automag/za/f1e075ffbbafe24088181187e129a4ea4f624e.mat from 'C:/Users/srpsk/Documents/Euro Truck Simulator 2/mod/MAPA_EAABUS_V4-1-2.scs'.
  88. 00:00:08.597 : [zipfs] MAPA_EAABUS_V4-1-2.scs: read ok, 5159 entries [0xa1a9a9a9]
  89. 00:00:08.644 : <ERROR> [zipfs] Unsupported compression method used: 99 for record #2 - automaf/za/377bf604bd28c9f3e638cf09fdf8807d0b1762.mat from 'C:/Users/srpsk/Documents/Euro Truck Simulator 2/mod/MAPA_EAABUS_V4-1-2_BASE.scs'.
  90. 00:00:08.645 : <ERROR> [zipfs] Unsupported compression method used: 99 for record #3 - automaf/za/77e2a90b33dc582dabbb43fc72b30fe6ee7d03.mat from 'C:/Users/srpsk/Documents/Euro Truck Simulator 2/mod/MAPA_EAABUS_V4-1-2_BASE.scs'.
  91. 00:00:08.645 : <ERROR> [zipfs] Unsupported compression method used: 99 for record #4 - automaf/za/baa67921e6bc592fb7ca0beb65d186fe36d7e2.mat from 'C:/Users/srpsk/Documents/Euro Truck Simulator 2/mod/MAPA_EAABUS_V4-1-2_BASE.scs'.
  92. 00:00:08.645 : <ERROR> [zipfs] Unsupported compression method used: 99 for record #5 - automaf/za/f1e075ffbbafe24088181187e129a4ea4f624e.mat from 'C:/Users/srpsk/Documents/Euro Truck Simulator 2/mod/MAPA_EAABUS_V4-1-2_BASE.scs'.
  93. 00:00:08.722 : [zipfs] MAPA_EAABUS_V4-1-2_BASE.scs: read ok, 24972 entries [0xddcdc5bd]
  94. 00:00:08.774 : [zipfs] C:/Users/srpsk/Documents/Euro Truck Simulator 2/mod/military_cargo_pack_by_Jazzycat_v2.1_base.scs: www.jazzycat.ucoz.net
  95. 00:00:08.774 : [zipfs] military_cargo_pack_by_Jazzycat_v2.1_base.scs: read ok, 2286 entries [0x51def5f4]
  96. 00:00:08.854 : [zipfs] military_cargo_pack_by_Jazzycat_v2.1_eng.scs: read ok, 7237 entries [0xc784353e]
  97. 00:00:08.856 : [zipfs] Normal Traffic Mario.scs: read ok, 184 entries [0x9e86869e]
  98. 00:00:08.857 : <WARNING> [mods] Unknown category 'traffic' defined for Normal Traffic Mario. Ignoring.
  99. 00:00:08.857 : <WARNING> [mods] No valid categories defined for Normal Traffic Mario. Setting defaults.
  100. 00:00:08.927 : [zipfs] Project Balkans 2.21 - Assets.scs: read ok, 3775 entries [0xd152424]
  101. 00:00:08.965 : [zipfs] Project Balkans 2.21 - Def.scs: read ok, 213 entries [0x834fca5b]
  102. 00:00:08.990 : [zipfs] Project Balkans 2.21 - Map.scs: read ok, 69 entries [0xaeb6b6b6]
  103. 00:00:09.022 : [zipfs] ProMods Extension 0.2.scs: read ok, 83 entries [0x41c0f665]
  104. 00:00:09.077 : [hashfs] promods-assets-v215.scs: Mounted, 26321 entries
  105. 00:00:09.086 : [zipfs] promods-def-v215.scs: read ok, 1005 entries [0x4fcd47a4]
  106. 00:00:09.233 : [zipfs] promods-map-v215.scs: read ok, 14063 entries [0x17a00be4]
  107. 00:00:09.264 : [hashfs] promods-media-v215.scs: Mounted, 139 entries
  108. 00:00:09.338 : [hashfs] promods-model1-v215.scs: Mounted, 14324 entries
  109. 00:00:09.403 : [hashfs] promods-model2-v215.scs: Mounted, 29016 entries
  110. 00:00:09.405 : [zipfs] ProMods_RusMap_Road_Connection.scs: read ok, 90 entries [0xafc1934e]
  111. 00:00:09.411 : [zipfs] PROMZONA_1.26_ROS_RM.scs: read ok, 2006 entries [0x93e3e86e]
  112. 00:00:09.446 : [zipfs] railway_cargo_pack_by_Jazzycat_v1.8_base.scs: read ok, 4322 entries [0x3f76591e]
  113. 00:00:09.448 : [zipfs] railway_cargo_pack_by_Jazzycat_v1.8_eng.scs: read ok, 83 entries [0x70586317]
  114. 00:00:09.466 : [zipfs] reflective_citylimits_rusmap.scs: read ok, 2812 entries [0x2772b6a3]
  115. 00:00:09.474 : [zipfs] reflective_smallsigns_rusmap.scs: read ok, 338 entries [0x8c8388dd]
  116. 00:00:09.585 : [zipfs] roadhunter_62_pack_v7.0_1.26.x.x.scs: read ok, 20825 entries [0xb6ccbf4b]
  117. 00:00:09.607 : [zipfs] RusMap-def_v1.7.1.scs: read ok, 5626 entries [0x54f1a1d5]
  118. 00:00:09.619 : [zipfs] RusMap-map_v1.7.1.scs: read ok, 449 entries [0x19888ab6]
  119. 00:00:09.701 : [zipfs] RusMap-model2_v1.7.1.scs: read ok, 6356 entries [0x3f070f37]
  120. 00:00:09.822 : [zipfs] RusMap-model_v1.7.1.scs: read ok, 18154 entries [0x2c2c2c2c]
  121. 00:00:09.823 : [zipfs] Russian_Open_Spaces_2.4_english.scs: read ok, 212 entries [0xf1a6d904]
  122. 00:00:09.955 : [zipfs] Russian_open_spaces_26.scs: read ok, 13014 entries [0x181818]
  123. 00:00:09.993 : [zipfs] Russian_open_spaces_26map.scs: read ok, 6957 entries [0x8b6c7776]
  124. 00:00:10.059 : [zipfs] Russian_open_spaces_model_26.scs: read ok, 7052 entries [0x45b5b5b5]
  125. 00:00:10.068 : [zipfs] S1.scs: read ok, 6504 entries [0x79b754b4]
  126. 00:00:10.070 : [zipfs] S10.scs: read ok, 713 entries [0]
  127. 00:00:10.070 : <WARNING> [mod] Mod package 'S10' does not contain a manifest file 'manifest.sii', creating default information set.
  128. 00:00:10.077 : [zipfs] S2.scs: read ok, 5108 entries [0x79b754b4]
  129. 00:00:10.094 : [zipfs] S3.scs: read ok, 17038 entries [0x79b754b4]
  130. 00:00:10.098 : [zipfs] S4.scs: read ok, 2367 entries [0x79b754b4]
  131. 00:00:10.106 : [zipfs] S5.scs: read ok, 7304 entries [0x79b754b4]
  132. 00:00:10.134 : [zipfs] S6.scs: read ok, 1093 entries [0x17efdfe7]
  133. 00:00:10.141 : [zipfs] S7.scs: read ok, 3456 entries [0x79b754b4]
  134. 00:00:10.210 : [zipfs] S8.scs: read ok, 12675 entries [0x79b754b4]
  135. 00:00:10.253 : [zipfs] S9.scs: read ok, 9599 entries [0x79b754b4]
  136. 00:00:10.289 : [zipfs] Scania R 4-series addon v2.1 by RJL.scs: read ok, 1857 entries [0x764e0798]
  137. 00:00:10.352 : [zipfs] Scania R Streamline modifications v2.1 by RJL.scs: read ok, 4932 entries [0x52f4505e]
  138. 00:00:10.376 : [zipfs] Scania T 4-series addon v2.1 by RJL.scs: read ok, 1847 entries [0xebd9fb7b]
  139. 00:00:10.423 : [zipfs] Scania T Mod v2.1 by RJL.scs: read ok, 5017 entries [0x1b84ee73]
  140. 00:00:10.428 : [zipfs] Serbian_Cab_Accsessories_DLC.scs: read ok, 1389 entries [0x223e3df8]
  141. 00:00:10.428 : <WARNING> [mod] Mod package 'Serbian_Cab_Accsessories_DLC' does not contain a manifest file 'manifest.sii', creating default information set.
  142. 00:00:10.430 : [zipfs] Snow_terrain_fix_promods_russian_open_spaces_v1.2.scs: read ok, 18 entries [0x21d9b403]
  143. 00:00:10.430 : <WARNING> [mods] Unknown category 'terrain' defined for Snow_terrain_fix_promods_russian_open_spaces_v1.2. Ignoring.
  144. 00:00:10.434 : [zipfs] SRmap_[Def and Map].scs: read ok, 2153 entries [0xf000cba6]
  145. 00:00:10.501 : [hashfs] SRmap_[Model1].scs: Mounted, 36147 entries
  146. 00:00:10.586 : [hashfs] SRmap_[Model2].scs: Mounted, 26068 entries
  147. 00:00:10.678 : [hashfs] SRmap_[Model3].scs: Mounted, 89 entries
  148. 00:00:10.691 : [zipfs] SRmap_EnglishCityNames_6.0.0.scs: read ok, 112 entries [0x11602177]
  149. 00:00:10.692 : [zipfs] the speed of the snow.scs: read ok, 31 entries [0x2e161616]
  150. 00:00:10.732 : [zipfs] Trailer Pack by Fred_be V10.scs: read ok, 8824 entries [0x917da6e0]
  151. 00:00:10.773 : [zipfs] Trailer Pack Overweight V1.26.scs: read ok, 1950 entries [0xecececec]
  152. 00:00:10.810 : [zipfs] C:/Users/srpsk/Documents/Euro Truck Simulator 2/mod/trailers_and_cargo_pack_by_Jazzycat_v4.5_eng.scs: www.jazzycat.ucoz.net
  153. 00:00:10.810 : [zipfs] trailers_and_cargo_pack_by_Jazzycat_v4.5_eng.scs: read ok, 7143 entries [0xd3f286db]
  154. 00:00:10.933 : [zipfs] C:/Users/srpsk/Documents/Euro Truck Simulator 2/mod/trailers_and_cargo_pack_by_Jazzycat_v4.5_part1.scs: www.jazzycat.ucoz.net
  155. 00:00:10.933 : [zipfs] trailers_and_cargo_pack_by_Jazzycat_v4.5_part1.scs: read ok, 38178 entries [0x2496f4c2]
  156. 00:00:10.939 : [zipfs] C:/Users/srpsk/Documents/Euro Truck Simulator 2/mod/trailers_and_cargo_pack_by_Jazzycat_v4.5_part2.scs: www.jazzycat.ucoz.net
  157. 00:00:10.939 : [zipfs] trailers_and_cargo_pack_by_Jazzycat_v4.5_part2.scs: read ok, 6773 entries [0xb8738c19]
  158. 00:00:10.943 : [zipfs] unlocked.scs: read ok, 2030 entries [0]
  159. 00:00:10.943 : <WARNING> [mod] Mod package 'unlocked' does not contain a manifest file 'manifest.sii', creating default information set.
  160. 00:00:10.989 : [zipfs] YKS_Team_EU_Turkey_Map.scs: read ok, 2120 entries [0x6e6e6e6e]
  161. 00:00:11.035 : [zipfs] YKS_Team_EU_Turkey_Map_Def.scs: read ok, 1621 entries [0x7e666666]
  162. 00:00:11.035 : <WARNING> [mods] Unknown category 'Map' defined for YKS_Team_EU_Turkey_Map_Def. Ignoring.
  163. 00:00:11.035 : <WARNING> [mods] No valid categories defined for YKS_Team_EU_Turkey_Map_Def. Setting defaults.
  164. 00:00:11.137 : [zipfs] YKS_Team_EU_Turkey_Map_Model.scs: read ok, 10610 entries [0x61595959]
  165. 00:00:11.224 : [zipfs] YKS_Team_EU_Turkey_Map_Model_2.scs: read ok, 2033 entries [0x9696969e]
  166. 00:00:11.226 : [zipfs] zzengine_for_all_trucks.scs: read ok, 225 entries [0x45dd0cf7]
  167. 00:00:11.226 : [mod_package_manager] Requesting Steam Workshop content..
  168. 00:00:11.227 : exec /home/config.cfg
  169. 00:00:11.228 : [sys] Executing /home/config.cfg ...
  170. 00:00:11.228 : uset g_bloom_standard_deviation "0.5"
  171. 00:00:11.228 : uset g_bloom_filter_radius "6"
  172. 00:00:11.228 : uset g_bloom_resizing_steps "3"
  173. 00:00:11.228 : uset g_bloom_override "0"
  174. 00:00:11.229 : uset inst_flags "0"
  175. 00:00:11.229 : uset inst_noupg "0"
  176. 00:00:11.229 : uset r_full_resolution_corrections "0"
  177. 00:00:11.229 : uset r_force_color_shadowmaps "0"
  178. 00:00:11.229 : uset g_mm_help_shown "1"
  179. 00:00:11.229 : uset g_game_version "1.26.4.3"
  180. 00:00:11.229 : uset g_force_online_lscrs "0"
  181. 00:00:11.229 : uset g_frame_image_fmt "jpg"
  182. 00:00:11.229 : uset g_frames_path ""
  183. 00:00:11.229 : uset g_hw_info "1"
  184. 00:00:11.229 : uset g_line_sort "0"
  185. 00:00:11.229 : uset g_cargo_sort "11"
  186. 00:00:11.230 : uset g_tooltip_delay "0.4"
  187. 00:00:11.230 : uset g_global_force_load_selector "0"
  188. 00:00:11.230 : uset g_desktop_fadeout "60"
  189. 00:00:11.230 : uset g_disable_hud_activation "0"
  190. 00:00:11.230 : uset g_show_game_elements "1"
  191. 00:00:11.230 : uset r_wireframe "0"
  192. 00:00:11.230 : uset g_interior_camera_zero_pitch "0"
  193. 00:00:11.230 : uset r_segment_buffer_size "128"
  194. 00:00:11.230 : uset r_multimon_exterior_in_aux "0"
  195. 00:00:11.230 : uset r_multimon_interior_in_main "1"
  196. 00:00:11.230 : uset r_multimon_rotation_aux "0"
  197. 00:00:11.230 : uset r_multimon_rotation_right "0"
  198. 00:00:11.231 : uset r_multimon_rotation_left "0"
  199. 00:00:11.231 : uset r_multimon_rotation_center "0"
  200. 00:00:11.231 : uset r_multimon_vert_offset_right "0"
  201. 00:00:11.231 : uset r_multimon_vert_offset_left "0"
  202. 00:00:11.231 : uset r_multimon_border_fov_right "0"
  203. 00:00:11.231 : uset r_multimon_border_fov_left "0"
  204. 00:00:11.231 : uset r_multimon_fov_vertical "0"
  205. 00:00:11.231 : uset r_multimon_fov_horizontal "50"
  206. 00:00:11.231 : uset r_multimon_mode "0"
  207. 00:00:11.231 : uset r_use_depth_bounds "1"
  208. 00:00:11.231 : uset r_show_light_pixel_coverage "0"
  209. 00:00:11.231 : uset r_deferred_debug "0"
  210. 00:00:11.232 : uset r_mirror_scale_y "1"
  211. 00:00:11.232 : uset r_mirror_scale_x "1"
  212. 00:00:11.232 : uset r_scale_y "1"
  213. 00:00:11.232 : uset r_scale_x "1"
  214. 00:00:11.232 : uset r_normal_maps "0"
  215. 00:00:11.232 : uset r_sunshafts "0"
  216. 00:00:11.232 : uset r_color_saturation "1.0"
  217. 00:00:11.232 : uset r_color_yellow_blue "0.0"
  218. 00:00:11.232 : uset r_color_magenta_green "0.0"
  219. 00:00:11.232 : uset r_color_cyan_red "0.0"
  220. 00:00:11.233 : uset r_color_correction "0"
  221. 00:00:11.233 : uset r_cloud_shadows "1"
  222. 00:00:11.233 : uset r_dof_filter_size "0.5"
  223. 00:00:11.233 : uset r_dof_transition "400.0"
  224. 00:00:11.233 : uset r_dof_start "200.0"
  225. 00:00:11.233 : uset r_dof "1"
  226. 00:00:11.233 : uset r_mlaa_threshold "1.0"
  227. 00:00:11.233 : uset r_mlaa "0"
  228. 00:00:11.233 : uset r_hdr "0"
  229. 00:00:11.233 : uset r_fake_shadows "1"
  230. 00:00:11.233 : uset r_sun_shadow_texture_size "2048"
  231. 00:00:11.233 : uset r_sun_shadow_quality "0"
  232. 00:00:11.234 : uset r_mirror_group "3"
  233. 00:00:11.234 : uset r_mirror_view_distance "80"
  234. 00:00:11.234 : uset r_deferred_mirrors "0"
  235. 00:00:11.234 : uset r_deferred "1"
  236. 00:00:11.234 : uset r_nowmi "1"
  237. 00:00:11.234 : uset r_startup_progress "0"
  238. 00:00:11.234 : uset r_setup_done "1"
  239. 00:00:11.234 : uset r_gamma "1"
  240. 00:00:11.234 : uset r_manual_stereo_buffer_scale "1.0"
  241. 00:00:11.234 : uset r_manual_stereo_ui_fov_game "100"
  242. 00:00:11.234 : uset r_manual_stereo_ui_fov "80"
  243. 00:00:11.234 : uset r_manual_stereo_ui_dist_game "0.5"
  244. 00:00:11.235 : uset r_manual_stereo_ui_dist "0.8"
  245. 00:00:11.235 : uset r_manual_stereo_in_menu "1"
  246. 00:00:11.235 : uset r_nv_stereo_mode "2"
  247. 00:00:11.235 : uset r_minimal_unfinished_frames "0"
  248. 00:00:11.235 : uset r_no_frame_tracking "0"
  249. 00:00:11.235 : uset r_msaa "0"
  250. 00:00:11.235 : uset r_fullscreen "1"
  251. 00:00:11.235 : uset r_mode "1280x720x32x0"
  252. 00:00:11.235 : uset r_path ""
  253. 00:00:11.235 : uset r_device "dx9"
  254. 00:00:11.235 : uset i_virtual_cursor_speed "500.0"
  255. 00:00:11.235 : uset g_trackir "1"
  256. 00:00:11.236 : uset g_lod_factor_pedestrian "1.0"
  257. 00:00:11.236 : uset g_pedestrian "1"
  258. 00:00:11.236 : uset g_light_span_factor "0"
  259. 00:00:11.236 : uset g_light_distance_factor "0"
  260. 00:00:11.236 : uset g_vehicle_flare_lights "0"
  261. 00:00:11.236 : uset g_auto_traffic_headlights "0"
  262. 00:00:11.236 : uset g_lod_factor_parked "1.0"
  263. 00:00:11.236 : uset g_lod_factor_traffic "1.0"
  264. 00:00:11.236 : uset g_traffic "1"
  265. 00:00:11.236 : uset g_kdop_preview "0"
  266. 00:00:11.236 : uset g_screenshot_on_bug "0"
  267. 00:00:11.236 : uset g_debug_map_limits "0"
  268. 00:00:11.237 : uset g_city_name_move "0"
  269. 00:00:11.237 : uset g_developer "1"
  270. 00:00:11.237 : uset g_steam_rich_presence "1"
  271. 00:00:11.237 : uset g_steam_browser "1"
  272. 00:00:11.237 : uset g_steam_screenshots "2"
  273. 00:00:11.237 : uset g_artist_id "0"
  274. 00:00:11.237 : uset g_save_format "0"
  275. 00:00:11.237 : uset g_flyspeed "100.0"
  276. 00:00:11.237 : uset g_online_loading_screens "0"
  277. 00:00:11.237 : uset g_news "1"
  278. 00:00:11.237 : uset g_colbox "0"
  279. 00:00:11.237 : uset g_radio_mode "1"
  280. 00:00:11.238 : uset g_ignore_low_fps "0"
  281. 00:00:11.238 : uset g_truck_light_quality "1"
  282. 00:00:11.238 : uset g_truck_light_specular "1"
  283. 00:00:11.238 : uset g_gfx_all_scales "0"
  284. 00:00:11.238 : uset g_gfx_advanced "1"
  285. 00:00:11.238 : uset g_gfx_quality "-1"
  286. 00:00:11.238 : uset g_hq_3d_scale "0.0"
  287. 00:00:11.238 : uset g_hq_3d_screenshot "0"
  288. 00:00:11.238 : uset g_menu_aa_limit "8"
  289. 00:00:11.238 : uset g_additional_water_fov "20.0f"
  290. 00:00:11.238 : uset g_rain_reflect_hookups "1"
  291. 00:00:11.238 : uset g_rain_reflect_actor "1"
  292. 00:00:11.239 : uset g_rain_reflect_traffic "1"
  293. 00:00:11.239 : uset g_rain_reflect_cache "1"
  294. 00:00:11.239 : uset g_rain_reflection "3"
  295. 00:00:11.239 : uset g_reflection "0"
  296. 00:00:11.239 : uset g_grass_density "0"
  297. 00:00:11.239 : uset g_veg_detail "0"
  298. 00:00:11.239 : uset g_minicon "0"
  299. 00:00:11.239 : uset g_console "1"
  300. 00:00:11.239 : uset g_texture_usage_stats "0"
  301. 00:00:11.239 : uset g_fps "0"
  302. 00:00:11.239 : uset g_stream_exts ".ogg;.mp3"
  303. 00:00:11.240 : uset r_vsync "0"
  304. 00:00:11.240 : uset r_anisotropy_factor "0"
  305. 00:00:11.240 : uset r_texture_detail "2"
  306. 00:00:11.240 : uset t_locked_fps "0"
  307. 00:00:11.240 : uset t_averaging_window_length "20"
  308. 00:00:11.290 : [lang] Language autodetection: 809
  309. 00:00:11.315 : Selected language: en_gb
  310. 00:00:11.316 : Euro Truck Simulator 2 init ver.1.26.4.3s (rev. 22b6d3f2d690)
  311. 00:00:11.335 : [net] LOG INFO: Started
  312. 00:00:11.353 : Setting UI reference mode to: 1440x900...
  313. 00:00:11.353 : [gfx] Selected rendering device: dx9
  314. 00:00:11.396 : [dx9] NVAPI not detected. (-2)
  315. 00:00:11.396 : [dx9] Direct3D9Ex detected.
  316. 00:00:11.396 : [dx9] Number of adapters found: 1
  317. 00:00:11.412 : [dx9] Adapter #0: AMD Radeon HD 8450G / 754 (0) MB (aticfx32.dll, 8.17.10.1404, )
  318. 00:00:11.412 : [dx9] Using adapter #0.
  319. 00:00:11.418 : [dx9] Using SM3X rendering path
  320. 00:00:11.419 : [gfx] Trying to set 1280x720 32bpp 60Hz (fullscreen)
  321. 00:00:11.940 : [dx9] D3D9 device sucessfully created [HWVP]
  322. 00:00:12.200 : [al] device: OpenAL Soft
  323. 00:00:12.200 : [al] context extensions: ALC_ENUMERATE_ALL_EXT ALC_ENUMERATION_EXT ALC_EXT_CAPTURE ALC_EXT_DEDICATED ALC_EXT_disconnect ALC_EXT_EFX ALC_EXT_thread_local_context ALC_SOFT_loopback
  324. 00:00:12.389 : [al] vendor: OpenAL Community
  325. 00:00:12.389 : [al] version: 1.1 ALSOFT 1.14
  326. 00:00:12.389 : [al] renderer: OpenAL Soft
  327. 00:00:12.389 : [al] extensions: AL_EXT_ALAW AL_EXT_DOUBLE AL_EXT_EXPONENT_DISTANCE AL_EXT_FLOAT32 AL_EXT_IMA4 AL_EXT_LINEAR_DISTANCE AL_EXT_MCFORMATS AL_EXT_MULAW AL_EXT_MULAW_MCFORMATS AL_EXT_OFFSET AL_EXT_source_distance_model AL_LOKI_quadriphonic AL_SOFT_buffer_samples AL_SOFT_buffer_sub_data AL_SOFTX_deferred_updates AL_SOFT_direct_channels AL_SOFT_loop_points
  328. 00:00:12.389 : [snd] Started sound update thread
  329. 00:00:12.436 : [di8] Initializing device '@@keyboard@@' as 'keyboard'
  330. 00:00:12.438 : [di8] Initializing device '@@i_mouse@@' as 'mouse'
  331. 00:00:13.200 : [zipfs] smp2_5.zip: read ok, 41793 entries [0xcffc93f6]
  332. 00:00:13.200 : [mod_package_manager] Received list of the steam workshop subscribed mods. (received 2 mods total, 2 loaded, 0 scheduled for download)
  333. 00:00:13.202 : dispatch
  334. 00:00:13.202 : exit
  335. 00:00:15.996 : [ui] Controller setup start
  336. 00:00:16.000 : [inp] Classifying devices
  337. 00:00:16.000 : [ui] Controller setup done
  338. 00:00:16.079 : mm_flush_repeatedly
  339. 00:00:16.103 : [hashfs] dlc_christmas.scs: Mounted and validated, 657 entries (D1FFD60D896731131AC451F8606E3DCFBE843F5C3E7D70838B3B7DF912CAF09)
  340. 00:00:16.316 : [hashfs] dlc_east.scs: Mounted and validated, 856 entries (234EB436311FE5FDDDD5024291FFB914B1585835DF6DAA5E91647AEF5D9AD39)
  341. 00:00:16.322 : [hashfs] dlc_flags_uk.scs: Mounted and validated, 210 entries (A19E7DB668BD95F28E5130C5604AC7B688805D63304C123F11F5B10919727BA)
  342. 00:00:17.148 : [hashfs] dlc_fr.scs: Mounted and validated, 4330 entries (C95A7F1F58ED97BD623AC4B380A678E76CE38F1480288F741B3068B9D865323)
  343. 00:00:17.173 : [hashfs] dlc_halloween.scs: Mounted and validated, 529 entries (D8A22E2E3511DFFE0B30EC23A9745B4D0DABDAC990482FAA7A77C1B4B56F133)
  344. 00:00:17.178 : [hashfs] dlc_metallics.scs: Mounted and validated, 218 entries (2DAD1C95AEDACCA2DB12374F854C8529830D87C85E10F2094742D68617ED21C)
  345. 00:00:17.185 : [hashfs] dlc_metallics2.scs: Mounted and validated, 252 entries (470808A47C42B186AE408BD3A939DBCB6A60F3DCE6DE37EDE1C15B8671120B4)
  346. 00:00:17.193 : [hashfs] dlc_nature.scs: Mounted and validated, 467 entries (4BDE3748CFDACF95DCC246DB6A0FD65ECFB998226B53E578A4D3C1D9F8B393A)
  347. 00:00:18.141 : [hashfs] dlc_north.scs: Mounted and validated, 6341 entries (B0593E23668F8A581CCEBC22E9F980D3A7BBB4CF42987478F97DDF4488667AE)
  348. 00:00:18.303 : [hashfs] dlc_phys_flags.scs: Mounted and validated, 8102 entries (127A6ADCF67E0E036ECCFC07E4A7CF973454942F9D8BD7C92C1AD83B5545051)
  349. 00:00:18.308 : [hashfs] dlc_rocket_league.scs: Mounted and validated, 125 entries (CF36114DA86BF2371DA5D5CB9C0D067DEC6EB37A70B979CAF20AB0073EF7DDA)
  350. 00:00:18.343 : [hashfs] dlc_toys.scs: Mounted and validated, 1257 entries (174A04D83DDB6263381053D33CF8BF6018C293C11565AFEA3E574D1B2297D5F)
  351. 00:00:18.450 : [hashfs] dlc_trailers.scs: Mounted and validated, 747 entries (D24A56DF40D1D979FC8319F05A1F659CEB9A36861EF3604BA2993AC59468B37)
  352. 00:00:18.456 : [hashfs] dlc_vikings.scs: Mounted and validated, 300 entries (06C3147E18701B1427D2DDE85FADD7D3BEB512D3BEA53C538E55DA521CB352F)
  353. 00:00:18.471 : [hashfs] dlc_winter.scs: Mounted and validated, 668 entries (8F7C4E143D88660CAF5497902C6AC93E4BB2EBF5533D79D115865B4E4E929E6)
  354. 00:00:19.015 : uset s_sfx_enabled "1"
  355. 00:00:19.015 : uset s_music_enabled "1"
  356. 00:00:19.015 : uset s_sfx_volume "1.0"
  357. 00:00:19.015 : uset s_radio_volume "1.0"
  358. 00:00:19.015 : uset s_music_volume "0.8"
  359. 00:00:19.015 : uset s_master_volume "1.0"
  360. 00:00:19.015 : uset s_reverse_stereo "0"
  361. 00:00:19.015 : uset g_force_economy_reset "0"
  362. 00:00:19.015 : uset g_force_load_selector "0"
  363. 00:00:19.015 : uset g_autoload_ignore_autosave "0"
  364. 00:00:19.015 : uset g_start_in_truck "0"
  365. 00:00:19.015 : uset g_input_configured "1"
  366. 00:00:19.015 : uset g_trailer_advanced_coupling "0"
  367. 00:00:19.015 : uset g_parking_difficulty "3"
  368. 00:00:19.015 : uset g_job_distance "1.0"
  369. 00:00:19.015 : uset g_job_distance_limit "-1.0"
  370. 00:00:19.015 : uset g_income_factor "1.0"
  371. 00:00:19.015 : uset g_currency "0"
  372. 00:00:19.015 : uset g_bad_weather_factor "0.07"
  373. 00:00:19.015 : uset g_desktop_bcg "config"
  374. 00:00:19.016 : uset g_save_idx "1"
  375. 00:00:19.016 : uset g_gps_navigation "3"
  376. 00:00:19.016 : uset g_adviser_auto_parking "1"
  377. 00:00:19.016 : uset g_adviser_keep_hidden "0"
  378. 00:00:19.016 : uset g_adviser "1"
  379. 00:00:19.016 : uset g_desktop_tutorial "0"
  380. 00:00:19.016 : uset g_tutorial "0"
  381. 00:00:19.016 : uset g_fatigue "0"
  382. 00:00:19.016 : uset g_police "0"
  383. 00:00:19.016 : uset g_subtitles "0"
  384. 00:00:19.016 : uset g_clock_24 "1"
  385. 00:00:19.016 : uset g_hmd_no_3d_background "0"
  386. 00:00:19.016 : uset g_hmd_no_special_menu "0"
  387. 00:00:19.016 : uset g_hmd_reduced_cabin_movement "1"
  388. 00:00:19.016 : uset g_hmd_no_artifical_movement "0"
  389. 00:00:19.016 : uset i_oculus_eye_protrusion "0.09"
  390. 00:00:19.016 : uset i_oculus_eye_height "0.15"
  391. 00:00:19.016 : uset i_hmd_max_prediction "0.1"
  392. 00:00:19.016 : uset i_hmd_min_prediction "0.0"
  393. 00:00:19.016 : uset r_steering_wheel "1"
  394. 00:00:19.016 : uset s_interior_volume "1.0"
  395. 00:00:19.016 : uset s_wheel_noise "1.0"
  396. 00:00:19.016 : uset s_air_noise "1.0"
  397. 00:00:19.016 : uset s_rumble_enabled "1"
  398. 00:00:19.016 : uset s_reverse_enabled "1"
  399. 00:00:19.016 : uset g_toy_physics "1"
  400. 00:00:19.016 : uset g_cam_blinker "0"
  401. 00:00:19.016 : uset g_cam_physics_value "1.0"
  402. 00:00:19.016 : uset g_cam_physics "1"
  403. 00:00:19.017 : uset g_cam_steering_reverse "1.0"
  404. 00:00:19.017 : uset g_cam_steering_value "1.0"
  405. 00:00:19.017 : uset g_cam_steering "0"
  406. 00:00:19.017 : uset g_blinker_auto_off "1"
  407. 00:00:19.017 : uset g_cruise_control_smart "0.0"
  408. 00:00:19.017 : uset g_cruise_control_grid "5.0"
  409. 00:00:19.017 : uset g_throttle_auto_shift "0"
  410. 00:00:19.017 : uset g_pedal_clutch_range "1.0"
  411. 00:00:19.017 : uset g_fuel_simulation "0"
  412. 00:00:19.017 : uset g_hardcore_simulation "0"
  413. 00:00:19.017 : uset g_reg_setting ""
  414. 00:00:19.017 : uset g_brake_light_all "0"
  415. 00:00:19.017 : uset g_use_speed_limiter "0"
  416. 00:00:19.017 : uset g_hud_speed_warning "0"
  417. 00:00:19.017 : uset g_hud_speed_limit "0"
  418. 00:00:19.017 : uset g_axle_drop_auto "1"
  419. 00:00:19.017 : uset g_engine_start_auto "1"
  420. 00:00:19.017 : uset g_motor_brake_auto "0"
  421. 00:00:19.017 : uset g_retarder_auto "0"
  422. 00:00:19.017 : uset g_trailer_stability "1"
  423. 00:00:19.017 : uset g_brake_intensity "3"
  424. 00:00:19.017 : uset g_steer_autocenter "1"
  425. 00:00:19.017 : uset g_mpg "2"
  426. 00:00:19.017 : uset g_gallon "0"
  427. 00:00:19.017 : uset g_fahrenheit "0"
  428. 00:00:19.017 : uset g_pounds "kg"
  429. 00:00:19.017 : uset g_mph "0"
  430. 00:00:19.017 : uset g_hshifter_synchronized "1"
  431. 00:00:19.018 : uset g_hshifter_split "3"
  432. 00:00:19.018 : uset g_hshifter_layout_shifting "1"
  433. 00:00:19.018 : uset g_hshifter_layout "3"
  434. 00:00:19.018 : uset g_trans "0"
  435. 00:00:19.018 : uset g_lang_set "1"
  436. 00:00:19.018 : uset g_lang "en_gb"
  437. 00:00:19.018 : uset g_cutscenes "1"
  438. 00:00:22.054 : [zipfs] S1.scs: read ok, 6504 entries [0xbd08716d]
  439. 00:00:22.054 : [mod_package_manager] Mod package S1 has been mount (package_version: 1.26, source: User mods)
  440. 00:00:22.185 : [zipfs] S2.scs: read ok, 5108 entries [0x52737b29]
  441. 00:00:22.185 : [mod_package_manager] Mod package S2 has been mount (package_version: 1.26, source: User mods)
  442. 00:00:22.565 : [zipfs] S3.scs: read ok, 17038 entries [0x9cac0ff6]
  443. 00:00:22.565 : [mod_package_manager] Mod package S3 has been mount (package_version: 1.26, source: User mods)
  444. 00:00:22.618 : [zipfs] S4.scs: read ok, 2367 entries [0x3a84bc1d]
  445. 00:00:22.618 : [mod_package_manager] Mod package S4 has been mount (package_version: 1.26, source: User mods)
  446. 00:00:22.789 : [zipfs] S5.scs: read ok, 7304 entries [0x284eb6d6]
  447. 00:00:22.789 : [mod_package_manager] Mod package S5 has been mount (package_version: 1.26, source: User mods)
  448. 00:00:23.257 : [zipfs] S6.scs: read ok, 1093 entries [0x512349e2]
  449. 00:00:23.257 : [mod_package_manager] Mod package S6 has been mount (package_version: 1.26, source: User mods)
  450. 00:00:24.694 : [zipfs] S7.scs: read ok, 3456 entries [0x29e13408]
  451. 00:00:24.694 : [mod_package_manager] Mod package S7 has been mount (package_version: 1.26, source: User mods)
  452. 00:00:26.804 : [zipfs] S8.scs: read ok, 12675 entries [0x84f44787]
  453. 00:00:26.804 : [mod_package_manager] Mod package S8 has been mount (package_version: 1.26, source: User mods)
  454. 00:00:31.433 : [zipfs] S9.scs: read ok, 9599 entries [0x6bcdd7d6]
  455. 00:00:31.433 : [mod_package_manager] Mod package S9 has been mount (package_version: 1.26, source: User mods)
  456. 00:00:31.469 : [zipfs] S10.scs: read ok, 713 entries [0xdbf29332]
  457. 00:00:31.469 : [mod_package_manager] Mod package S10 has been mount (package_version: , source: User mods)
  458. 00:00:35.840 : [zipfs] Trailer Pack by Fred_be V10.scs: read ok, 8824 entries [0x5115157c]
  459. 00:00:35.840 : [mod_package_manager] Mod package Trailer Pack by Fred_be V10 has been mount (package_version: 1.26, source: User mods)
  460. 00:00:38.027 : [zipfs] roadhunter_62_pack_v7.0_1.26.x.x.scs: read ok, 20825 entries [0xd570b848]
  461. 00:00:38.028 : [mod_package_manager] Mod package roadhunter_62_pack_v7.0_1.26.x.x has been mount (package_version: 7.0, source: User mods)
  462. 00:00:38.101 : [zipfs] unlocked.scs: read ok, 2030 entries [0xc2ea3ae4]
  463. 00:00:38.101 : [mod_package_manager] Mod package unlocked has been mount (package_version: , source: User mods)
  464. 00:00:38.166 : [zipfs] Serbian_Cab_Accsessories_DLC.scs: read ok, 1389 entries [0xb1c8b74f]
  465. 00:00:38.166 : [mod_package_manager] Mod package Serbian_Cab_Accsessories_DLC has been mount (package_version: , source: User mods)
  466. 00:00:41.962 : [zipfs] smp2_5.zip: read ok, 41793 entries [0x931845e3]
  467. 00:00:41.962 : [mod_package_manager] Mod package mod_workshop_package.00000000267A5DC4 has been mount (package_version: 2.5, source: Steam Workshop)
  468. 00:00:41.963 : [mod_package_manager] Mod package mod_workshop_package.00000000290649EB has been mount (package_version: 1.0.3, source: Steam Workshop)
  469. 00:00:42.231 : [zipfs] Scania R 4-series addon v2.1 by RJL.scs: read ok, 1857 entries [0xe21922ec]
  470. 00:00:42.231 : [mod_package_manager] Mod package Scania R 4-series addon v2.1 by RJL has been mount (package_version: V2.1, source: User mods)
  471. 00:00:43.845 : [zipfs] Scania R Streamline modifications v2.1 by RJL.scs: read ok, 4932 entries [0xa2c5caaf]
  472. 00:00:43.845 : [mod_package_manager] Mod package Scania R Streamline modifications v2.1 by RJL has been mount (package_version: V2.1, source: User mods)
  473. 00:00:45.487 : [zipfs] Scania T Mod v2.1 by RJL.scs: read ok, 5017 entries [0xc574f96e]
  474. 00:00:45.487 : [mod_package_manager] Mod package Scania T Mod v2.1 by RJL has been mount (package_version: V2.1, source: User mods)
  475. 00:00:45.847 : [zipfs] Scania T 4-series addon v2.1 by RJL.scs: read ok, 1847 entries [0xde0df5ca]
  476. 00:00:45.847 : [mod_package_manager] Mod package Scania T 4-series addon v2.1 by RJL has been mount (package_version: V2.1, source: User mods)
  477. 00:00:45.852 : [zipfs] zzengine_for_all_trucks.scs: read ok, 225 entries [0xb4da0e85]
  478. 00:00:45.852 : [mod_package_manager] Mod package zzengine_for_all_trucks has been mount (package_version: 2.0, source: User mods)
  479. 00:00:46.158 : [zipfs] IWR6_sup01.scs: read ok, 210 entries [0xcce8ef0c]
  480. 00:00:46.158 : [mod_package_manager] Mod package IWR6_sup01 has been mount (package_version: 6.1 (16.01.2017), source: User mods)
  481. 00:00:46.160 : [zipfs] Fast Level & More XP V1.26.scs: read ok, 8 entries [0xc2eddb8c]
  482. 00:00:46.160 : [mod_package_manager] Mod package Fast Level & More XP V1.26 has been mount (package_version: 1.26, source: User mods)
  483. 00:00:59.962 : mm_flush_repeatedly
  484. 00:01:00.652 : uset s_sfx_enabled "1"
  485. 00:01:00.652 : uset s_music_enabled "1"
  486. 00:01:00.652 : uset s_sfx_volume "1.0"
  487. 00:01:00.652 : uset s_radio_volume "1.0"
  488. 00:01:00.652 : uset s_music_volume "0.8"
  489. 00:01:00.652 : uset s_master_volume "1.0"
  490. 00:01:00.652 : uset s_reverse_stereo "0"
  491. 00:01:00.652 : uset g_force_economy_reset "0"
  492. 00:01:00.652 : uset g_force_load_selector "0"
  493. 00:01:00.652 : uset g_autoload_ignore_autosave "0"
  494. 00:01:00.652 : uset g_start_in_truck "0"
  495. 00:01:00.652 : uset g_input_configured "1"
  496. 00:01:00.652 : uset g_trailer_advanced_coupling "0"
  497. 00:01:00.652 : uset g_parking_difficulty "3"
  498. 00:01:00.652 : uset g_job_distance "1.0"
  499. 00:01:00.652 : uset g_job_distance_limit "-1.0"
  500. 00:01:00.652 : uset g_income_factor "1.0"
  501. 00:01:00.652 : uset g_currency "0"
  502. 00:01:00.652 : uset g_bad_weather_factor "0.07"
  503. 00:01:00.653 : uset g_desktop_bcg "config"
  504. 00:01:00.653 : uset g_save_idx "1"
  505. 00:01:00.653 : uset g_gps_navigation "3"
  506. 00:01:00.653 : uset g_adviser_auto_parking "1"
  507. 00:01:00.653 : uset g_adviser_keep_hidden "0"
  508. 00:01:00.653 : uset g_adviser "1"
  509. 00:01:00.653 : uset g_desktop_tutorial "0"
  510. 00:01:00.653 : uset g_tutorial "0"
  511. 00:01:00.653 : uset g_fatigue "0"
  512. 00:01:00.653 : uset g_police "0"
  513. 00:01:00.653 : uset g_subtitles "0"
  514. 00:01:00.653 : uset g_clock_24 "1"
  515. 00:01:00.653 : uset g_hmd_no_3d_background "0"
  516. 00:01:00.653 : uset g_hmd_no_special_menu "0"
  517. 00:01:00.653 : uset g_hmd_reduced_cabin_movement "1"
  518. 00:01:00.653 : uset g_hmd_no_artifical_movement "0"
  519. 00:01:00.653 : uset i_oculus_eye_protrusion "0.09"
  520. 00:01:00.653 : uset i_oculus_eye_height "0.15"
  521. 00:01:00.653 : uset i_hmd_max_prediction "0.1"
  522. 00:01:00.653 : uset i_hmd_min_prediction "0.0"
  523. 00:01:00.653 : uset r_steering_wheel "1"
  524. 00:01:00.653 : uset s_interior_volume "1.0"
  525. 00:01:00.653 : uset s_wheel_noise "1.0"
  526. 00:01:00.653 : uset s_air_noise "1.0"
  527. 00:01:00.653 : uset s_rumble_enabled "1"
  528. 00:01:00.653 : uset s_reverse_enabled "1"
  529. 00:01:00.653 : uset g_toy_physics "1"
  530. 00:01:00.653 : uset g_cam_blinker "0"
  531. 00:01:00.653 : uset g_cam_physics_value "1.0"
  532. 00:01:00.653 : uset g_cam_physics "1"
  533. 00:01:00.654 : uset g_cam_steering_reverse "1.0"
  534. 00:01:00.654 : uset g_cam_steering_value "1.0"
  535. 00:01:00.654 : uset g_cam_steering "0"
  536. 00:01:00.654 : uset g_blinker_auto_off "1"
  537. 00:01:00.654 : uset g_cruise_control_smart "0.0"
  538. 00:01:00.654 : uset g_cruise_control_grid "5.0"
  539. 00:01:00.654 : uset g_throttle_auto_shift "0"
  540. 00:01:00.654 : uset g_pedal_clutch_range "1.0"
  541. 00:01:00.654 : uset g_fuel_simulation "0"
  542. 00:01:00.654 : uset g_hardcore_simulation "0"
  543. 00:01:00.654 : uset g_reg_setting ""
  544. 00:01:00.654 : uset g_brake_light_all "0"
  545. 00:01:00.654 : uset g_use_speed_limiter "0"
  546. 00:01:00.654 : uset g_hud_speed_warning "0"
  547. 00:01:00.654 : uset g_hud_speed_limit "0"
  548. 00:01:00.654 : uset g_axle_drop_auto "1"
  549. 00:01:00.654 : uset g_engine_start_auto "1"
  550. 00:01:00.654 : uset g_motor_brake_auto "0"
  551. 00:01:00.654 : uset g_retarder_auto "0"
  552. 00:01:00.654 : uset g_trailer_stability "1"
  553. 00:01:00.654 : uset g_brake_intensity "3"
  554. 00:01:00.654 : uset g_steer_autocenter "1"
  555. 00:01:00.654 : uset g_mpg "2"
  556. 00:01:00.654 : uset g_gallon "0"
  557. 00:01:00.654 : uset g_fahrenheit "0"
  558. 00:01:00.654 : uset g_pounds "kg"
  559. 00:01:00.654 : uset g_mph "0"
  560. 00:01:00.654 : uset g_hshifter_synchronized "1"
  561. 00:01:00.655 : uset g_hshifter_split "3"
  562. 00:01:00.655 : uset g_hshifter_layout_shifting "1"
  563. 00:01:00.655 : uset g_hshifter_layout "3"
  564. 00:01:00.655 : uset g_trans "0"
  565. 00:01:00.655 : uset g_lang_set "1"
  566. 00:01:00.655 : uset g_lang "en_gb"
  567. 00:01:00.655 : uset g_cutscenes "1"
  568. 00:01:04.181 : uset s_sfx_enabled "1"
  569. 00:01:04.181 : uset s_music_enabled "1"
  570. 00:01:04.182 : uset s_sfx_volume "1.0"
  571. 00:01:04.182 : uset s_radio_volume "1.0"
  572. 00:01:04.182 : uset s_music_volume "0.8"
  573. 00:01:04.182 : uset s_master_volume "1.0"
  574. 00:01:04.182 : uset s_reverse_stereo "0"
  575. 00:01:04.182 : uset g_force_economy_reset "0"
  576. 00:01:04.182 : uset g_force_load_selector "0"
  577. 00:01:04.182 : uset g_autoload_ignore_autosave "0"
  578. 00:01:04.182 : uset g_start_in_truck "0"
  579. 00:01:04.182 : uset g_input_configured "1"
  580. 00:01:04.182 : uset g_trailer_advanced_coupling "0"
  581. 00:01:04.182 : uset g_parking_difficulty "3"
  582. 00:01:04.182 : uset g_job_distance "1.0"
  583. 00:01:04.182 : uset g_job_distance_limit "-1.0"
  584. 00:01:04.182 : uset g_income_factor "1.0"
  585. 00:01:04.182 : uset g_currency "0"
  586. 00:01:04.182 : uset g_bad_weather_factor "0.07"
  587. 00:01:04.182 : uset g_desktop_bcg "config"
  588. 00:01:04.182 : uset g_save_idx "1"
  589. 00:01:04.182 : uset g_gps_navigation "3"
  590. 00:01:04.182 : uset g_adviser_auto_parking "1"
  591. 00:01:04.182 : uset g_adviser_keep_hidden "0"
  592. 00:01:04.182 : uset g_adviser "1"
  593. 00:01:04.182 : uset g_desktop_tutorial "0"
  594. 00:01:04.182 : uset g_tutorial "0"
  595. 00:01:04.182 : uset g_fatigue "0"
  596. 00:01:04.182 : uset g_police "0"
  597. 00:01:04.182 : uset g_subtitles "0"
  598. 00:01:04.182 : uset g_clock_24 "1"
  599. 00:01:04.183 : uset g_hmd_no_3d_background "0"
  600. 00:01:04.183 : uset g_hmd_no_special_menu "0"
  601. 00:01:04.183 : uset g_hmd_reduced_cabin_movement "1"
  602. 00:01:04.183 : uset g_hmd_no_artifical_movement "0"
  603. 00:01:04.183 : uset i_oculus_eye_protrusion "0.09"
  604. 00:01:04.183 : uset i_oculus_eye_height "0.15"
  605. 00:01:04.183 : uset i_hmd_max_prediction "0.1"
  606. 00:01:04.183 : uset i_hmd_min_prediction "0.0"
  607. 00:01:04.183 : uset r_steering_wheel "1"
  608. 00:01:04.183 : uset s_interior_volume "1.0"
  609. 00:01:04.183 : uset s_wheel_noise "1.0"
  610. 00:01:04.183 : uset s_air_noise "1.0"
  611. 00:01:04.183 : uset s_rumble_enabled "1"
  612. 00:01:04.183 : uset s_reverse_enabled "1"
  613. 00:01:04.183 : uset g_toy_physics "1"
  614. 00:01:04.183 : uset g_cam_blinker "0"
  615. 00:01:04.183 : uset g_cam_physics_value "1.0"
  616. 00:01:04.183 : uset g_cam_physics "1"
  617. 00:01:04.183 : uset g_cam_steering_reverse "1.0"
  618. 00:01:04.183 : uset g_cam_steering_value "1.0"
  619. 00:01:04.183 : uset g_cam_steering "0"
  620. 00:01:04.183 : uset g_blinker_auto_off "1"
  621. 00:01:04.183 : uset g_cruise_control_smart "0.0"
  622. 00:01:04.183 : uset g_cruise_control_grid "5.0"
  623. 00:01:04.183 : uset g_throttle_auto_shift "0"
  624. 00:01:04.183 : uset g_pedal_clutch_range "1.0"
  625. 00:01:04.183 : uset g_fuel_simulation "0"
  626. 00:01:04.183 : uset g_hardcore_simulation "0"
  627. 00:01:04.184 : uset g_reg_setting ""
  628. 00:01:04.184 : uset g_brake_light_all "0"
  629. 00:01:04.184 : uset g_use_speed_limiter "0"
  630. 00:01:04.184 : uset g_hud_speed_warning "0"
  631. 00:01:04.184 : uset g_hud_speed_limit "0"
  632. 00:01:04.184 : uset g_axle_drop_auto "1"
  633. 00:01:04.184 : uset g_engine_start_auto "1"
  634. 00:01:04.184 : uset g_motor_brake_auto "0"
  635. 00:01:04.184 : uset g_retarder_auto "0"
  636. 00:01:04.184 : uset g_trailer_stability "1"
  637. 00:01:04.184 : uset g_brake_intensity "3"
  638. 00:01:04.184 : uset g_steer_autocenter "1"
  639. 00:01:04.184 : uset g_mpg "2"
  640. 00:01:04.184 : uset g_gallon "0"
  641. 00:01:04.184 : uset g_fahrenheit "0"
  642. 00:01:04.184 : uset g_pounds "kg"
  643. 00:01:04.184 : uset g_mph "0"
  644. 00:01:04.184 : uset g_hshifter_synchronized "1"
  645. 00:01:04.184 : uset g_hshifter_split "3"
  646. 00:01:04.184 : uset g_hshifter_layout_shifting "1"
  647. 00:01:04.184 : uset g_hshifter_layout "3"
  648. 00:01:04.184 : uset g_trans "0"
  649. 00:01:04.184 : uset g_lang_set "1"
  650. 00:01:04.184 : uset g_lang "en_gb"
  651. 00:01:04.184 : uset g_cutscenes "1"
  652. 00:01:04.236 : New profile selected: 'Dirty Roads'
  653. 00:01:04.371 : [zipfs] S1.scs: read ok, 6504 entries [0xbd08716d]
  654. 00:01:04.371 : [mod_package_manager] Mod package S1 has been mount (package_version: 1.26, source: User mods)
  655. 00:01:04.503 : [zipfs] S2.scs: read ok, 5108 entries [0x52737b29]
  656. 00:01:04.503 : [mod_package_manager] Mod package S2 has been mount (package_version: 1.26, source: User mods)
  657. 00:01:04.898 : [zipfs] S3.scs: read ok, 17038 entries [0x9cac0ff6]
  658. 00:01:04.898 : [mod_package_manager] Mod package S3 has been mount (package_version: 1.26, source: User mods)
  659. 00:01:04.951 : [zipfs] S4.scs: read ok, 2367 entries [0x3a84bc1d]
  660. 00:01:04.951 : [mod_package_manager] Mod package S4 has been mount (package_version: 1.26, source: User mods)
  661. 00:01:05.127 : [zipfs] S5.scs: read ok, 7304 entries [0x284eb6d6]
  662. 00:01:05.127 : [mod_package_manager] Mod package S5 has been mount (package_version: 1.26, source: User mods)
  663. 00:01:05.151 : [zipfs] S6.scs: read ok, 1093 entries [0x512349e2]
  664. 00:01:05.152 : [mod_package_manager] Mod package S6 has been mount (package_version: 1.26, source: User mods)
  665. 00:01:05.230 : [zipfs] S7.scs: read ok, 3456 entries [0x29e13408]
  666. 00:01:05.230 : [mod_package_manager] Mod package S7 has been mount (package_version: 1.26, source: User mods)
  667. 00:01:05.507 : [zipfs] S8.scs: read ok, 12675 entries [0x84f44787]
  668. 00:01:05.507 : [mod_package_manager] Mod package S8 has been mount (package_version: 1.26, source: User mods)
  669. 00:01:05.731 : [zipfs] S9.scs: read ok, 9599 entries [0x6bcdd7d6]
  670. 00:01:05.731 : [mod_package_manager] Mod package S9 has been mount (package_version: 1.26, source: User mods)
  671. 00:01:05.751 : [zipfs] S10.scs: read ok, 713 entries [0xdbf29332]
  672. 00:01:05.751 : [mod_package_manager] Mod package S10 has been mount (package_version: , source: User mods)
  673. 00:01:05.949 : [zipfs] Trailer Pack by Fred_be V10.scs: read ok, 8824 entries [0x5115157c]
  674. 00:01:05.949 : [mod_package_manager] Mod package Trailer Pack by Fred_be V10 has been mount (package_version: 1.26, source: User mods)
  675. 00:01:06.405 : [zipfs] roadhunter_62_pack_v7.0_1.26.x.x.scs: read ok, 20825 entries [0xd570b848]
  676. 00:01:06.405 : [mod_package_manager] Mod package roadhunter_62_pack_v7.0_1.26.x.x has been mount (package_version: 7.0, source: User mods)
  677. 00:01:06.446 : [zipfs] unlocked.scs: read ok, 2030 entries [0xc2ea3ae4]
  678. 00:01:06.446 : [mod_package_manager] Mod package unlocked has been mount (package_version: , source: User mods)
  679. 00:01:06.474 : [zipfs] Serbian_Cab_Accsessories_DLC.scs: read ok, 1389 entries [0xb1c8b74f]
  680. 00:01:06.474 : [mod_package_manager] Mod package Serbian_Cab_Accsessories_DLC has been mount (package_version: , source: User mods)
  681. 00:01:07.445 : [zipfs] smp2_5.zip: read ok, 41793 entries [0x931845e3]
  682. 00:01:07.445 : [mod_package_manager] Mod package mod_workshop_package.00000000267A5DC4 has been mount (package_version: 2.5, source: Steam Workshop)
  683. 00:01:07.446 : [mod_package_manager] Mod package mod_workshop_package.00000000290649EB has been mount (package_version: 1.0.3, source: Steam Workshop)
  684. 00:01:07.486 : [zipfs] Scania R 4-series addon v2.1 by RJL.scs: read ok, 1857 entries [0xe21922ec]
  685. 00:01:07.486 : [mod_package_manager] Mod package Scania R 4-series addon v2.1 by RJL has been mount (package_version: V2.1, source: User mods)
  686. 00:01:07.600 : [zipfs] Scania R Streamline modifications v2.1 by RJL.scs: read ok, 4932 entries [0xa2c5caaf]
  687. 00:01:07.600 : [mod_package_manager] Mod package Scania R Streamline modifications v2.1 by RJL has been mount (package_version: V2.1, source: User mods)
  688. 00:01:07.714 : [zipfs] Scania T Mod v2.1 by RJL.scs: read ok, 5017 entries [0xc574f96e]
  689. 00:01:07.714 : [mod_package_manager] Mod package Scania T Mod v2.1 by RJL has been mount (package_version: V2.1, source: User mods)
  690. 00:01:07.755 : [zipfs] Scania T 4-series addon v2.1 by RJL.scs: read ok, 1847 entries [0xde0df5ca]
  691. 00:01:07.755 : [mod_package_manager] Mod package Scania T 4-series addon v2.1 by RJL has been mount (package_version: V2.1, source: User mods)
  692. 00:01:07.760 : [zipfs] zzengine_for_all_trucks.scs: read ok, 225 entries [0xb4da0e85]
  693. 00:01:07.760 : [mod_package_manager] Mod package zzengine_for_all_trucks has been mount (package_version: 2.0, source: User mods)
  694. 00:01:07.766 : [zipfs] IWR6_sup01.scs: read ok, 210 entries [0xcce8ef0c]
  695. 00:01:07.766 : [mod_package_manager] Mod package IWR6_sup01 has been mount (package_version: 6.1 (16.01.2017), source: User mods)
  696. 00:01:07.767 : [zipfs] Fast Level & More XP V1.26.scs: read ok, 8 entries [0xc2eddb8c]
  697. 00:01:07.767 : [mod_package_manager] Mod package Fast Level & More XP V1.26 has been mount (package_version: 1.26, source: User mods)
  698. 00:01:09.607 : game
  699. 00:01:09.999 : [bullet] Starting physics server: Bullet
  700. 00:01:10.080 : [segment_buffer] Allocation of vertex/index buffer (134217728/33554432) ...
  701. 00:01:10.081 : [segment_buffer] ... successful.
  702. 00:01:10.484 : Loaded trailers: 331
  703. 00:01:10.500 : <ERROR> [fs] Failed to open file "/def/vehicle/ai/ducato_aus.sii" in the read_only mode
  704. 00:01:10.501 : <ERROR> [unit] File '/def/vehicle/traffic_storage_car.europolice_v5.sii', line 3:
  705. 00:01:10.501 : <ERROR> Failed to open the file '/def/vehicle/ai/ducato_aus.sii'.
  706. 00:01:10.501 : <ERROR> load_filtered_unit_array() - Failed to load units from file (/def/vehicle/traffic_storage_car.europolice_v5.sii)
  707. 00:01:10.501 : <ERROR> [fs] Failed to open file "/def/vehicle/ai/jazzycat/drivers_jazzycat_aicar.sui" in the read_only mode
  708. 00:01:10.501 : <ERROR> [unit] File '/def/vehicle/ai/jazzycat/mb_200te_jazzy.sii', line 36:
  709. 00:01:10.501 : <ERROR> Included at '/def/vehicle/traffic_storage_car.jazzycat_ai.sii', line 4:
  710. 00:01:10.501 : <ERROR> Failed to open the file '/def/vehicle/ai/jazzycat/drivers_jazzycat_aicar.sui'.
  711. 00:01:10.501 : <ERROR> load_filtered_unit_array() - Failed to load units from file (/def/vehicle/traffic_storage_car.jazzycat_ai.sii)
  712. 00:01:10.502 : <ERROR> [traffic_vehicle_type] Unable to load vehicle storage from '/def/vehicle/traffic_storage_car.sii'!
  713. 00:01:10.502 : Loaded traffic vehicles of type 'car': 46
  714. 00:01:10.562 : Loaded traffic vehicles of type 'truck': 133
  715. 00:01:10.565 : <ERROR> [fs] Failed to open file "/def/vehicle/ai/bigbus2.sii" in the read_only mode
  716. 00:01:10.565 : <ERROR> [unit] File '/def/vehicle/traffic_storage_bus.bigbus.sii', line 7:
  717. 00:01:10.565 : <ERROR> Failed to open the file '/def/vehicle/ai/bigbus2.sii'.
  718. 00:01:10.565 : <ERROR> load_filtered_unit_array() - Failed to load units from file (/def/vehicle/traffic_storage_bus.bigbus.sii)
  719. 00:01:10.624 : <ERROR> [traffic_vehicle_type] Unable to load vehicle storage from '/def/vehicle/traffic_storage_bus.sii'!
  720. 00:01:10.624 : Loaded traffic vehicles of type 'bus': 51
  721. 00:01:10.626 : Loaded traffic vehicles of type 'slow': 2
  722. 00:01:10.628 : Loaded traffic vehicles of type 'piva_tr': 1
  723. 00:01:10.631 : Loaded traffic vehicles of type 'train': 2
  724. 00:01:10.633 : Loaded traffic vehicles of type 'train_fast': 1
  725. 00:01:10.635 : Loaded traffic vehicles of type 'tram': 1
  726. 00:01:10.675 : <ERROR> [unit] File '/def/vehicle/trailer/fdb144_traffic.sii', line 2:
  727. 00:01:10.675 : <ERROR> Included at '/def/vehicle/traffic_storage_semi_trailer.fdb144.sii', line 2:
  728. 00:01:10.675 : <ERROR> [unit] The unit name 'trailer.fdb144' is already taken by an existing unit (of type 'trailer').
  729. 00:01:10.675 : <ERROR> load_filtered_unit_array() - Failed to load units from file (/def/vehicle/traffic_storage_semi_trailer.fdb144.sii)
  730. 00:01:10.676 : <ERROR> [unit] File '/def/vehicle/trailer/fdb145_traffic.sii', line 2:
  731. 00:01:10.676 : <ERROR> Included at '/def/vehicle/traffic_storage_semi_trailer.fdb145.sii', line 2:
  732. 00:01:10.676 : <ERROR> [unit] The unit name 'trailer.fdb145' is already taken by an existing unit (of type 'trailer').
  733. 00:01:10.676 : <ERROR> load_filtered_unit_array() - Failed to load units from file (/def/vehicle/traffic_storage_semi_trailer.fdb145.sii)
  734. 00:01:10.676 : <ERROR> [unit] File '/def/vehicle/trailer/fdb146_traffic.sii', line 2:
  735. 00:01:10.676 : <ERROR> Included at '/def/vehicle/traffic_storage_semi_trailer.fdb146.sii', line 2:
  736. 00:01:10.676 : <ERROR> [unit] The unit name 'trailer.fdb146' is already taken by an existing unit (of type 'trailer').
  737. 00:01:10.676 : <ERROR> load_filtered_unit_array() - Failed to load units from file (/def/vehicle/traffic_storage_semi_trailer.fdb146.sii)
  738. 00:01:10.736 : <ERROR> [traffic_trailer_type] Unable to load trailer storage from '/def/vehicle/traffic_storage_semi_trailer.sii'!
  739. 00:01:10.736 : Loaded traffic trailers of type 'semi_trailer': 173
  740. 00:01:10.739 : Loaded traffic trailers of type 'piva_tr': 4
  741. 00:01:10.742 : Loaded traffic trailers of type 'train_car': 12
  742. 00:01:10.745 : Loaded traffic trailers of type 'tram_car': 2
  743. 00:01:10.748 : Loaded traffic trailers of type 'simple': 4
  744. 00:01:10.783 : Loaded addon hookups: 715
  745. 00:01:10.784 : Loading resource server data ....
  746. 00:01:10.784 : Loading vegetation data ....
  747. 00:01:10.793 : Loading road data ....
  748. 00:01:10.819 : Loading terrain data ....
  749. 00:01:10.835 : Loading railing data ....
  750. 00:01:10.846 : Loading building data ....
  751. 00:01:10.900 : Loading model data ....
  752. 00:01:10.953 : <ERROR> [unit] File '/def/world/model.sii', line 8160:
  753. 00:01:10.953 : <ERROR> Expecting end of file, found 'm'
  754. 00:01:11.018 : <ERROR> [unit] File '/def/world/model.bt01.sii', line 373:
  755. 00:01:11.018 : <ERROR> Expecting end of file, found '}'
  756. 00:01:11.089 : <ERROR> [unit] File '/def/world/model.s0.sii', line 29:
  757. 00:01:11.089 : <ERROR> Expecting end of file, found 'm'
  758. 00:01:11.148 : Loading prefab data ....
  759. 00:01:11.197 : <ERROR> Missing prefab descriptor: /prefab/tsmrnprefab/tsmrnfreec21.ppd
  760. 00:01:11.394 : Loading traffic rule data ....
  761. 00:01:11.398 : Loading sign data ....
  762. 00:01:11.513 : <WARNING> Mass of sign '/sign/bt-sign/Leitboy/Leitboy_1.pmd' is not set, default value is used.
  763. 00:01:11.513 : <WARNING> Mass of sign '/sign/bt-sign/Leitboy/Leitboy_2.pmd' is not set, default value is used.
  764. 00:01:11.513 : <WARNING> Mass of sign '/sign/bt-sign/Leitboy/Leitboy_1a.pmd' is not set, default value is used.
  765. 00:01:11.513 : <WARNING> Mass of sign '/sign/bt-sign/other/bus_station.pmd' is not set, default value is used.
  766. 00:01:11.513 : <WARNING> Mass of sign '/sign/bt-sign/other/bus_street.pmd' is not set, default value is used.
  767. 00:01:11.515 : <WARNING> Mass of sign '/sign/bt-sign/other/traffic_island_sign.pmd' is not set, default value is used.
  768. 00:01:11.515 : <WARNING> Mass of sign '/sign/bt-sign/other/bollard.pmd' is not set, default value is used.
  769. 00:01:11.515 : <WARNING> Mass of sign '/sign/bt-sign/other/bollard_2.pmd' is not set, default value is used.
  770. 00:01:11.515 : <WARNING> Mass of sign '/sign/bt-sign/demo/demo_bench01.pmd' is not set, default value is used.
  771. 00:01:11.515 : <WARNING> Mass of sign '/sign/bt-sign/demo/demo_bench02.pmd' is not set, default value is used.
  772. 00:01:11.515 : <WARNING> Mass of sign '/sign/bt-sign/demo/demo_birch01.pmd' is not set, default value is used.
  773. 00:01:11.515 : <WARNING> Mass of sign '/sign/bt-sign/demo/demo_bush01.pmd' is not set, default value is used.
  774. 00:01:11.515 : <WARNING> Mass of sign '/sign/bt-sign/demo/demo_chair01.pmd' is not set, default value is used.
  775. 00:01:11.515 : <WARNING> Mass of sign '/sign/bt-sign/demo/demo_flower01.pmd' is not set, default value is used.
  776. 00:01:11.515 : <WARNING> Mass of sign '/sign/bt-sign/demo/demo_flower02.pmd' is not set, default value is used.
  777. 00:01:11.515 : <WARNING> Mass of sign '/sign/bt-sign/demo/demo_syprus.pmd' is not set, default value is used.
  778. 00:01:11.515 : <WARNING> Mass of sign '/sign/bt-sign/demo/demo_table01.pmd' is not set, default value is used.
  779. 00:01:11.516 : <WARNING> Mass of sign '/sign/bt-sign/demo/demo_trashbin01.pmd' is not set, default value is used.
  780. 00:01:11.516 : <WARNING> Mass of sign '/sign/bt-sign/demo/demo_trashbin03.pmd' is not set, default value is used.
  781. 00:01:11.516 : <WARNING> Mass of sign '/sign/bt-sign/demo/demo_umbrella01.pmd' is not set, default value is used.
  782. 00:01:11.516 : <WARNING> Mass of sign '/sign/bt-sign/demo/demo_wall.pmd' is not set, default value is used.
  783. 00:01:11.516 : <WARNING> Mass of sign '/sign/bt-sign/demo/demo_bench03.pmd' is not set, default value is used.
  784. 00:01:11.516 : <WARNING> Mass of sign '/sign/bt-sign/demo/demo_chair_table_01.pmd' is not set, default value is used.
  785. 00:01:11.516 : <WARNING> Mass of sign '/sign/bt-sign/demo/demo_chair_table_02.pmd' is not set, default value is used.
  786. 00:01:11.516 : <WARNING> Mass of sign '/sign/bt-sign/demo/demo_chair_table_03.pmd' is not set, default value is used.
  787. 00:01:11.516 : <WARNING> Mass of sign '/sign/bt-sign/demo/demo_chair_table_person_01.pmd' is not set, default value is used.
  788. 00:01:11.516 : <WARNING> Mass of sign '/sign/bt-sign/demo/demo_chair_table_person_02.pmd' is not set, default value is used.
  789. 00:01:11.516 : <WARNING> Mass of sign '/sign/bt-sign/demo/demo_chair_table_person_02_2.pmd' is not set, default value is used.
  790. 00:01:11.516 : <WARNING> Mass of sign '/sign/bt-sign/demo/demo_chair_table_person_03.pmd' is not set, default value is used.
  791. 00:01:11.516 : <WARNING> Mass of sign '/sign/bt-sign/demo/demo_chair_table_person_04.pmd' is not set, default value is used.
  792. 00:01:11.531 : Loading city data ....
  793. 00:01:11.557 : Loading traffic semaphore data ....
  794. 00:01:11.564 : Loading traffic signs data ....
  795. 00:01:11.581 : Loading hinges data ....
  796. 00:01:11.585 : Loading stamp data ....
  797. 00:01:11.597 : Loading movers data ....
  798. 00:01:11.611 : Loading ferry data ....
  799. 00:01:11.623 : Loading country data ....
  800. 00:01:11.626 : <ERROR> [unit] File '/def/country/field/traffic.europolice_v5.sii':
  801. 00:01:11.627 : <ERROR> [unit] The unit '_nameless.4fc.f460' of type 'country_traffic_info' has dangling pointer (to 'traffic.ducato_alb') in the attribute named 'object'.
  802. 00:01:11.627 : <ERROR> [unit] File '/def/country/field/traffic.europolice_v5.sii':
  803. 00:01:11.627 : <WARNING> [unit] The pointer to 'traffic.ducato_alb' looks like dangling pointer.
  804. 00:01:11.627 : <ERROR> [unit] File '/def/country/field/traffic.europolice_v5.sii':
  805. 00:01:11.627 : <ERROR> [unit] The unit '_nameless.4fc.f230' of type 'country_traffic_info' has dangling pointer (to 'traffic.ducato_alb2') in the attribute named 'object'.
  806. 00:01:11.627 : <ERROR> [unit] File '/def/country/field/traffic.europolice_v5.sii':
  807. 00:01:11.627 : <WARNING> [unit] The pointer to 'traffic.ducato_alb2' looks like dangling pointer.
  808. 00:01:11.627 : <ERROR> [unit] File '/def/country/field/traffic.europolice_v5.sii':
  809. 00:01:11.627 : <ERROR> [unit] The unit '_nameless.4fc.f310' of type 'country_traffic_info' has dangling pointer (to 'traffic.ducato_arg') in the attribute named 'object'.
  810. 00:01:11.627 : <ERROR> [unit] File '/def/country/field/traffic.europolice_v5.sii':
  811. 00:01:11.627 : <WARNING> [unit] The pointer to 'traffic.ducato_arg' looks like dangling pointer.
  812. 00:01:11.627 : <ERROR> [unit] File '/def/country/field/traffic.europolice_v5.sii':
  813. 00:01:11.627 : <ERROR> [unit] The unit '_nameless.4fc.fa48' of type 'country_traffic_info' has dangling pointer (to 'traffic.ducato_arg2') in the attribute named 'object'.
  814. 00:01:11.627 : <ERROR> [unit] File '/def/country/field/traffic.europolice_v5.sii':
  815. 00:01:11.627 : <WARNING> [unit] The pointer to 'traffic.ducato_arg2' looks like dangling pointer.
  816. 00:01:11.627 : <ERROR> load_filtered_unit_array() - Failed to load units from file (/def/country/field/traffic.europolice_v5.sii)
  817. 00:01:11.628 : <ERROR> [unit] File '/def/country/field/traffic.jazzycat_ai.sii':
  818. 00:01:11.628 : <ERROR> [unit] The unit '_nameless.4fc.fc08' of type 'country_traffic_info' has dangling pointer (to 'traffic.mb_200te') in the attribute named 'object'.
  819. 00:01:11.628 : <ERROR> [unit] File '/def/country/field/traffic.jazzycat_ai.sii':
  820. 00:01:11.628 : <WARNING> [unit] The pointer to 'traffic.mb_200te' looks like dangling pointer.
  821. 00:01:11.628 : <ERROR> load_filtered_unit_array() - Failed to load units from file (/def/country/field/traffic.jazzycat_ai.sii)
  822. 00:01:11.632 : <WARNING> [country_data] Loading obsolete country spawn frequency information from '/def/country/field/ai'. Please use '/def/country/field/traffic.sii' instead
  823. 00:01:11.635 : Loading sound item data ....
  824. 00:01:11.638 : Loading live stream data ....
  825. 00:01:11.643 : Loading game condition data ....
  826. 00:01:11.646 : Loading trigger action data ....
  827. 00:01:11.651 : Loading cutscene data ....
  828. 00:01:11.794 : Loading cargo data ....
  829. 00:01:12.476 : Loading company data ....
  830. 00:01:20.663 : Loading unlock data ....
  831. 00:01:20.765 : Resources load time: 10851ms (187 MB)
  832. 00:01:20.766 : Map '/map/s.mbd' loading started ....
  833. 00:01:21.064 : <ERROR> Unable to set the garage link name: kdop_link.garage.trumpeters (given link already exists)
  834. 00:01:21.064 : <ERROR> Unable to set the garage link name: kdop_link.buy_garage.trumpeters (given link already exists)
  835. 00:01:21.064 : Map successfully loaded.
  836. 00:01:21.066 : Map load time: 300ms (0 MB)
  837. 00:01:21.085 : Loading save '/home/profiles/446972747920526F616473/save/autosave/game.sii'
  838. 00:01:21.269 : <ERROR> Company item without company assignment! (21829.1 86.9727 -8969.39)
  839. 00:01:21.279 : Road network navigation caching started.
  840. 00:01:21.385 : Road network navigation caching finished.
  841. 00:01:21.452 : Garage update started.
  842. 00:01:21.654 : Garage update finished.
  843. 00:01:21.658 : Economy load time: 11744ms (0 MB)
  844. 00:01:22.469 : Game init finished. (201 MB)
  845. 00:01:33.776 : <ERROR> [fs] Failed to open file "/def/vehicle/truck/scania.r/accessory/f_inlay_cab/vent_inlays_mg_01_cab.sii.sii" in the read_only mode
  846. 00:01:33.833 : <ERROR> [fs] Failed to open file "/def/vehicle/truck/daf.xf/transmission/16as307.sii" in the read_only mode
  847. 00:01:33.841 : <ERROR> [fs] Failed to open file "/def/vehicle/truck/daf.xf/accessory/beacon/shape6.sii" in the read_only mode
  848. 00:01:33.905 : <ERROR> [fs] Failed to open file "/def/vehicle/truck/volvo.fh16_2012/transmission/vto2814_308.sii" in the read_only mode
  849. 00:01:33.909 : <ERROR> [fs] Failed to open file "/def/vehicle/truck/volvo.fh16_2012/accessory/beacon/shape6.sii" in the read_only mode
  850. 00:01:34.011 : <WARNING> Ignoring obsolete attribute 'front_wheel' of unit 'front_90.ftire' (of type 'accessory_wheel_data').
  851. 00:01:34.044 : <WARNING> Ignoring obsolete attribute 'front_wheel' of unit 'rear_90os.rtire' (of type 'accessory_wheel_data').
  852. 00:01:34.268 : <ERROR> [fs] Failed to open file "/def/vehicle/truck/scania.r/accessory/f_inlay_cab/vent_inlays_mg_01_cab.sii.sii" in the read_only mode
  853. 00:01:34.269 : <ERROR> load_unit() - Failed to open file (/def/vehicle/truck/scania.r/accessory/f_inlay_cab/vent_inlays_mg_01_cab.sii.sii)
  854. 00:01:34.362 : <ERROR> [fs] Failed to open file "/def/vehicle/truck/daf.xf/transmission/16as307.sii" in the read_only mode
  855. 00:01:34.362 : <ERROR> load_unit() - Failed to open file (/def/vehicle/truck/daf.xf/transmission/16as307.sii)
  856. 00:01:34.362 : <ERROR> Missing accessory (/def/vehicle/truck/daf.xf/transmission/16as307.sii) replaced by (/def/vehicle/truck/daf.xf/transmission/12_speed.sii).
  857. 00:01:34.363 : <ERROR> [fs] Failed to open file "/def/vehicle/truck/daf.xf/accessory/beacon/shape6.sii" in the read_only mode
  858. 00:01:34.363 : <ERROR> load_unit() - Failed to open file (/def/vehicle/truck/daf.xf/accessory/beacon/shape6.sii)
  859. 00:01:34.401 : <ERROR> [fs] Failed to open file "/def/vehicle/truck/volvo.fh16_2012/transmission/vto2814_308.sii" in the read_only mode
  860. 00:01:34.401 : <ERROR> load_unit() - Failed to open file (/def/vehicle/truck/volvo.fh16_2012/transmission/vto2814_308.sii)
  861. 00:01:34.401 : <ERROR> Missing accessory (/def/vehicle/truck/volvo.fh16_2012/transmission/vto2814_308.sii) replaced by (/def/vehicle/truck/volvo.fh16_2012/transmission/12_speed.sii).
  862. 00:01:34.402 : <ERROR> [fs] Failed to open file "/def/vehicle/truck/volvo.fh16_2012/accessory/beacon/shape6.sii" in the read_only mode
  863. 00:01:34.402 : <ERROR> load_unit() - Failed to open file (/def/vehicle/truck/volvo.fh16_2012/accessory/beacon/shape6.sii)
  864. 00:01:34.442 : <ERROR> [fs] Failed to open file "/vehicle/truck/upgrade/windowtrim/scania_rcab_2009/windowtrim_mg_02.pmd" in the read_only mode
  865. 00:01:34.442 : <ERROR> [resource_task] Can not open '/vehicle/truck/upgrade/windowtrim/scania_rcab_2009/windowtrim_mg_02.pmd'
  866. 00:01:34.454 : <ERROR> [model] Model descriptor '/vehicle/truck/upgrade/windowtrim/scania_rcab_2009/windowtrim_mg_02.pmd' is malformed.
  867. 00:01:34.454 : <ERROR> [fs] Failed to open file "/vehicle/truck/upgrade/windowtrim/scania_rcab_2009/windowtrim_mg_02.pmg" in the read_only mode
  868. 00:01:34.454 : <ERROR> [resource_task] Can not open '/vehicle/truck/upgrade/windowtrim/scania_rcab_2009/windowtrim_mg_02.pmg'
  869. 00:01:34.472 : <ERROR> [model] Model geometry '/vehicle/truck/upgrade/windowtrim/scania_rcab_2009/windowtrim_mg_02.pmg' is malformed.
  870. 00:01:34.472 : <ERROR> [fs] Failed to open file "/vehicle/truck/upgrade/windowtrim/scania_rcab_2009/windowtrim_mg_02.pmd" in the read_only mode
  871. 00:01:34.473 : <ERROR> [ld] Failed to open '/vehicle/truck/upgrade/windowtrim/scania_rcab_2009/windowtrim_mg_02.pmd'.
  872. 00:01:34.473 : <ERROR> model_template.cpp(560): ?cache_data_handler@model_template_u@prism@@UAEXXZ: Failed to load model descriptor (.pmd) or model geometry (.pmg) for '/vehicle/truck/upgrade/windowtrim/scania_rcab_2009/windowtrim_mg_02.pmg'.
RAW Paste Data